Location: Godiavel Galaoual
(15.2485°N, 12.6604°W)
Time: 11:09:41
(UTC+00:00)

Hubble Space Telescope - Pass Details

Date: 19 May 2021
Orbit: 535 x 539 km, 28.5° (Epoch: 19 June)

Event Time Altitude Azimuth Distance (km) Brightness Sun altitude
Exits shadow 03:41:42 12° 80° (E) 1,632 3.8 -34.6°
Drops below altitude 10° 03:42:05 10° 78° (ENE) 1,775 4.1 -34.5°
Sets 03:44:24 0° 72° (ENE) 2,664 5.2 -34.1°
